, TX

(GMT )
Midland

Weather History for KMAF - March, 2014

Change the Weather History Date:

Sunday, March 2, 2014

  Actual Average Record
Temperature  
Mean Temperature 45 °F 52 °F  
Max Temperature 70 °F 66 °F 86 °F (1986)
Min Temperature 20 °F 38 °F 9 °F (1980)
Degree Days  
Heating Degree Days 20 13  
Month to date heating degree days 20 26  
Since 1 July heating degree days 2268 2263  
Cooling Degree Days 0 0  
Month to date cooling degree days 0 0  
Year to date cooling degree days 2 2  
Moisture  
Dew Point 25 °F    
Average Humidity 60    
Maximum Humidity 100    
Minimum Humidity 20    
Precipitation  
Precipitation T in 0.02 in 0.24 in (2000)
Month to date precipitation T 0.04  
Year to date precipitation 0.26 1.31  
Snow  
Snow 0.00 in - - ()
Month to date snowfall 0.0  
Since 1 July snowfall 0.8  
Snow Depth 0.00 in    
Sea Level Pressure  
Sea Level Pressure 30.09 in    
Wind  
Wind Speed 17 mph (NE)    
Max Wind Speed 33 mph    
Max Gust Speed 41 mph    
Visibility 7 miles    
Events      
T = Trace of Precipitation, MM = Missing Value Source: NWS Daily Summary

Daily Weather History Graph

Daily Weather History Graph

Search for Another Location

Airport or City:

Trip Planner

Search our weather history database for the weather conditions in past years. The results will help you decide how hot, cold, wet, or windy it might be!

Date:

Astronomy

Mar. 02, 2014 Rise Set
Actual Time 7:14 AM CST 6:47 PM CST
Civil Twilight 6:50 AM CST 7:11 PM CST
Nautical Twilight 6:22 AM CST 7:40 PM CST
Astronomical Twilight 5:53 AM CST 8:08 PM CST
Moon 7:54 AM CST (3/2) 8:36 PM CST (3/2)
Length of Visible Light 12h 21m
Length of Day
11h 32m
Waxing Crescent, 3% of the Moon is Illuminated
Mar 2
Waxing Crescent
Mar 8
First Quarter
Mar 16
Full
Mar 23
Last Quarter
Mar 30
New

Hourly Weather History & Observations

Time (CST) Temp. Windchill Dew Point Humidity Pressure Visibility Wind Dir Wind Speed Gust Speed Precip Events Conditions
12:53 AM 66.0 °F - 27.0 °F 23% 29.76 in 10.0 mi SSW 5.8 mph - N/A   Clear
1:53 AM 43.0 °F 34.0 °F 37.0 °F 80% 29.85 in 6.0 mi NE 21.9 mph - N/A   Haze
2:44 AM 39.0 °F 28.3 °F 35.1 °F 86% 29.95 in 6.0 mi NE 24.2 mph 31.1 mph N/A   Mostly Cloudy
2:53 AM 39.0 °F 29.3 °F 35.1 °F 86% 29.88 in 6.0 mi ENE 19.6 mph - N/A   Mostly Cloudy
3:53 AM 37.0 °F 26.2 °F 33.1 °F 86% 29.88 in 6.0 mi NE 21.9 mph - N/A   Overcast
4:53 AM 34.0 °F 22.4 °F 30.0 °F 85% 29.89 in 7.0 mi ENE 20.7 mph 29.9 mph N/A   Overcast
5:53 AM 33.1 °F 21.2 °F 28.0 °F 82% 29.96 in 9.0 mi NNE 20.7 mph - N/A   Overcast
6:51 AM 30.2 °F 17.8 °F 28.4 °F 93% 30.05 in 2.5 mi ENE 19.6 mph - N/A   Overcast
6:53 AM 30.0 °F 17.9 °F 28.0 °F 92% 29.99 in 2.0 mi NE 18.4 mph - N/A   Overcast
7:25 AM 28.9 °F 17.7 °F 28.0 °F 96% 30.05 in 1.0 mi NE 15.0 mph - N/A   Overcast
7:41 AM 28.0 °F 14.9 °F 27.0 °F 96% 30.06 in 1.0 mi NE 19.6 mph - N/A   Overcast
7:53 AM 28.0 °F 14.3 °F 26.1 °F 92% 30.01 in 1.0 mi NE 21.9 mph 26.5 mph N/A   Overcast
8:53 AM 27.0 °F 14.3 °F 26.1 °F 96% 30.04 in 1.8 mi NE 17.3 mph - N/A   Overcast
9:53 AM 27.0 °F 13.9 °F 25.0 °F 92% 30.09 in 1.8 mi NNE 18.4 mph - N/A   Overcast
10:53 AM 26.1 °F 12.3 °F 25.0 °F 96% 30.14 in 1.8 mi North 19.6 mph - N/A   Overcast
11:02 AM 27.0 °F 13.5 °F 25.0 °F 92% 30.19 in 1.5 mi North 19.6 mph - N/A   Overcast
11:34 AM 28.0 °F 14.3 °F 26.1 °F 92% 30.19 in 2.0 mi North 21.9 mph - N/A   Overcast
11:53 AM 27.0 °F 13.5 °F 24.1 °F 89% 30.14 in 4.0 mi North 19.6 mph - N/A   Overcast
12:53 PM 32.0 °F 22.5 °F 25.0 °F 75% 30.10 in 9.0 mi NE 12.7 mph - N/A   Overcast
1:12 PM 32.0 °F 22.1 °F 24.1 °F 73% 30.13 in 9.0 mi NE 13.8 mph - N/A   Mostly Cloudy
1:22 PM 32.0 °F 22.1 °F 24.1 °F 73% 30.12 in 9.0 mi ENE 13.8 mph - N/A   Mostly Cloudy
1:53 PM 32.0 °F 23.6 °F 24.1 °F 73% 30.09 in 9.0 mi East 10.4 mph - N/A   Mostly Cloudy
2:53 PM 33.1 °F 25.5 °F 25.0 °F 72% 30.06 in 10.0 mi ESE 9.2 mph - N/A   Mostly Cloudy
3:53 PM 37.0 °F 32.4 °F 27.0 °F 67% 30.06 in 10.0 mi SSE 5.8 mph - N/A   Clear
4:53 PM 43.0 °F 37.7 °F 27.0 °F 53% 30.06 in 10.0 mi NE 9.2 mph - N/A   Clear
5:53 PM 41.0 °F 32.2 °F 27.0 °F 57% 30.09 in 10.0 mi NE 18.4 mph - N/A   Clear
6:53 PM 34.0 °F 22.4 °F 21.9 °F 61% 30.14 in 10.0 mi NNE 20.7 mph 29.9 mph N/A   Clear
7:53 PM 28.9 °F 15.8 °F 19.9 °F 69% 30.20 in 10.0 mi NE 20.7 mph - N/A   Clear
8:53 PM 27.0 °F 13.2 °F 18.0 °F 69% 30.24 in 10.0 mi NNE 20.7 mph - N/A   Clear
9:53 PM 25.0 °F 10.6 °F 16.0 °F 69% 30.29 in 10.0 mi NNE 20.7 mph - N/A   Clear
10:27 PM 24.1 °F 8.7 °F 15.1 °F 69% 30.27 in 10.0 mi NNE 23.0 mph 28.8 mph N/A   Mostly Cloudy
10:53 PM 21.9 °F 6.5 °F 14.0 °F 72% 30.34 in 10.0 mi NNE 20.7 mph - N/A   Mostly Cloudy
11:03 PM 21.9 °F 6.2 °F 12.9 °F 68% 30.29 in 10.0 mi NNE 21.9 mph - N/A   Partly Cloudy
11:53 PM 21.0 °F 7.6 °F 12.0 °F 68% 30.35 in 10.0 mi NNE 15.0 mph - N/A   Mostly Cloudy